[[{"header":{"parameterUnit":"m.s-1","parameterCategory":1,"la1":30.2991,"la2":30.254,"lo1":-89.0895,"lo2":-89.0444,"dy":0.0017,"dx":0.0017,"nx":28,"ny":28,"refTime":"2026-02-26T03:00:00:Z","depth":0,"parameterNumber":2,"parameterNumberName":"U-component_of_WINDS"},"data":[0,0,0,0,0,0,0,0,0,0,0,0,0,0,0,0,0,0,0,0,0,0,0,0,0,0,0,0,0,0,0,0,0,0,0,0,0,0,0,0,0,0,0,0,0,0,0,0,0,0,0,0,0,0,0,0,0,0,0.599,0.5991,0,0.6007,0.6007,0.6007,0.5971,0.597,0.5969,0.5967,0.5986,0.5988,0.5989,0,0,0,0,0,0,0,0,0,0,0,0,0,0.593,0.5931,0.599,0.5991,0.5991,0.6007,0.6007,0.6007,0.5971,0.597,0.5968,0.5967,0.5986,0.5987,0.5989,0,0,0,0,0,0,0,0,0,0,0,0,0,0.5952,0.5931,0.599,0.5975,0.5973,0.6007,0.6007,0.6007,0.5971,0.597,0.5968,0.5966,0.5985,0.5987,0.599,0.6039,0,0,0.5997,0.5998,0,0,0,0,0,0,0,0,0.5951,0.5954,0.5977,0.5976,0.5975,0.5985,0.5992,0.6018,0.5972,0.5972,0.5967,0.5965,0.5987,0.5989,0.5996,0.604,0.6041,0.5997,0.5998,0.6,0.6,0,0,0,0,0,0,0,0.5949,0.5953,0.5997,0.5977,0.5976,0.5967,0.5968,0.5997,0.5989,0.5972,0.5969,0.5972,0.5986,0.5994,0.5996,0.6041,0.5997,0.5999,0.6001,0.6001,0.6126,0.6128,0,0,0,0,0,0,0.5949,0.5952,0.5996,0.5997,0.5958,0.597,0.5971,0.5983,0.5989,0.5988,0.5973,0.597,0.5991,0.5994,0.5997,0.6055,0.5999,0.6002,0.6003,0.6124,0.6126,0.6128,0,0,0,0,0,0,0.5948,0.5954,0.5996,0.5974,0.5979,0.5973,0.5987,0.5985,0.5992,0.599,0.5988,0.5983,0.599,0.5994,0.6029,0.6056,0.6003,0.6005,0.6122,0.6125,0.6127,0.6173,0,0,0,0,0,0,0.5947,0.5954,0.5972,0.5975,0.598,0.6027,0.5988,0.5986,0.5996,0.5992,0.5998,0.5998,0.5989,0.6025,0.6031,0.6058,0.6007,0.6119,0.6123,0.6126,0.6169,0.6177,0.6184,0,0,0,0,0,0.5945,0.5985,0.5973,0.5979,0.6003,0.6029,0.6032,0.602,0.5999,0.6017,0.6016,0.5997,0.6051,0.6029,0.6035,0.6063,0.6118,0.6122,0.6126,0.6166,0.6175,0.6184,0,0,0,0,0,0,0.5987,0.5985,0.5972,0.6014,0.6022,0.6023,0.6046,0.6031,0.6045,0.6041,0.6026,0.6028,0.6066,0.6068,0.6043,0.6111,0.6081,0.6087,0.6109,0.6118,0.6125,0.6125,0.6009,0,0,0,0,0,0.6001,0.6021,0.6019,0.6056,0.6061,0.6053,0.6063,0.6053,0.6061,0.6064,0.6065,0.6073,0.6092,0.6105,0.6122,0.6168,0.6169,0.6191,0.6198,0.6204,0.621,0.6234,0.6244,0.6142,0.6142,0.6142,0,0,0.6031,0.6032,0.6046,0.6065,0.6069,0.6091,0.6056,0.6081,0.6097,0.6068,0.6101,0.6102,0.611,0.6151,0.6169,0.6154,0.6237,0.6209,0.6214,0.6216,0.6239,0.6249,0.6258,0.6145,0.6145,0.6144,0,0,0.6096,0.6099,0.613,0.6135,0.6142,0.6137,0.6144,0.6147,0.6146,0.6179,0.6157,0.6176,0.6209,0.6216,0.6223,0.629,0.6273,0.6295,0.6335,0.6359,0.6367,0.6374,0.6398,0.6407,0.6301,0.6301,0.6301,0,0.6132,0.6164,0.6149,0.6175,0.6184,0.6157,0.6189,0.6195,0.6208,0.6215,0.6197,0.6237,0.624,0.6282,0.6298,0.6305,0.6314,0.6296,0.6366,0.6373,0.638,0.6403,0.6412,0.6303,0.6303,0.6303,0.6303,0,0.6208,0.623,0.6255,0.6267,0.6278,0.6307,0.6297,0.631,0.6299,0.6295,0.6328,0.6331,0.6349,0.6357,0.6347,0.6398,0.6388,0.6369,0.6338,0.6392,0.6414,0.6422,0.6307,0.6306,0.6306,0.6305,0,0,0.6302,0.6304,0.6314,0.6319,0.6324,0.6341,0.6368,0.6384,0.6396,0.6405,0.6428,0.6455,0.6437,0.6446,0.6435,0.6456,0.6509,0.6434,0.6434,0.6449,0.6565,0.6581,0.6591,0.6497,0.6499,0.65,0.6565,0,0.6367,0.6414,0.6401,0.6448,0.6468,0.6443,0.6467,0.6472,0.6469,0.6486,0.6482,0.6502,0.6476,0.6481,0.6501,0.6498,0.6532,0.6493,0.6519,0.652,0.6519,0.6602,0.6619,0.668,0.6573,0.6574,0.6575,0,0.645,0.6461,0.6511,0.6511,0.6519,0.6541,0.6554,0.6571,0.6576,0.6572,0.6581,0.6567,0.6594,0.6561,0.6599,0.6573,0.6582,0.6582,0.6584,0.6587,0.6552,0.6609,0.6699,0.6709,0.6588,0.6587,0.6586,0,0.6515,0.6542,0.6575,0.658,0.6582,0.6597,0.6599,0.6603,0.6613,0.6624,0.6631,0.6645,0.6654,0.6665,0.6655,0.6632,0.6694,0.6661,0.6692,0.6692,0.6708,0.6707,0.6802,0.6712,0.6712,0.6711,0.6711,0,0.6589,0.6621,0.6604,0.6624,0.6658,0.6642,0.6676,0.6675,0.6678,0.6698,0.6677,0.6696,0.668,0.6698,0.6689,0.6722,0.6725,0.6723,0.6721,0.6726,0.6726,0.6733,0.6729,0.6714,0.6713,0.6713,0.6712,0,0.6668,0.6658,0.6692,0.6691,0.6691,0.6716,0.6715,0.6734,0.6728,0.6753,0.6758,0.675,0.6769,0.6759,0.678,0.6774,0.6816,0.6807,0.6814,0.6812,0.6844,0.6842,0.6948,0.6961,0.6861,0.6862,0.6863,0,0.6717,0.674,0.6741,0.6752,0.6755,0.6774,0.6784,0.6768,0.6779,0.6787,0.6805,0.6822,0.6836,0.6868,0.6864,0.6879,0.6872,0.6908,0.6874,0.6878,0.6873,0.6873,0.6875,0.6915,0.6916,0.6917,0.6918,0,0.6805,0.6799,0.6814,0.6827,0.6839,0.6849,0.6857,0.6867,0.6852,0.6866,0.6885,0.6895,0.6915,0.6933,0.6946,0.6948,0.6931,0.6928,0.6937,0.6943,0.6946,0.6945,0.6834,0.6927,0.6926,0.6925,0.6925,0.6924,0.6871,0.6891,0.6894,0.6911,0.6915,0.6923,0.694,0.6936,0.6952,0.6967,0.6957,0.698,0.6984,0.6999,0.7003,0.7021,0.7007,0.7018,0.7022,0.7025,0.703,0.6942,0.7023,0.7023,0.7023,0.7022,0.7022,0,0.6959,0.6959,0.6975,0.6987,0.7,0.6981,0.6989,0.7002,0.7022,0.7027,0.704,0.7062,0.7079,0.7075,0.7091,0.7105,0.7098,0.711,0.711,0.711,0.7041,0.7033,0.7116,0.7116,0.7116,0.7116,0.7116,0.7116,0.7006,0.7038,0.7032,0.7066,0.7066,0.7088,0.7093,0.71,0.7104,0.713,0.7143,0.714,0.7142,0.7157,0.7172,0.717,0.7177,0.7192,0.7188,0.7124,0.7115,0.7106,0.7099,0.7194,0.7194,0.7256,0.7256,0.7257]},{"header":{"parameterUnit":"m.s-1","parameterCategory":1,"la1":30.2991,"la2":30.254,"lo1":-89.0895,"lo2":-89.0444,"dy":0.0017,"dx":0.0017,"nx":28,"ny":28,"refTime":"2026-02-26T03:00:00:Z","depth":0,"parameterNumber":3,"parameterNumberName":"V-component_of_WINDS"},"data":[0,0,0,0,0,0,0,0,0,0,0,0,0,0,0,0,0,0,0,0,0,0,0,0,0,0,0,0,0,0,0,0,0,0,0,0,0,0,0,0,0,0,0,0,0,0,0,0,0,0,0,0,0,0,0,0,0,0,4.9763,4.9763,0,4.9756,4.9756,4.9756,4.9712,4.9711,4.971,4.9709,4.9702,4.9703,4.9704,0,0,0,0,0,0,0,0,0,0,0,0,0,4.9738,4.9739,4.9763,4.9763,4.9763,4.9756,4.9756,4.9756,4.9712,4.9711,4.9709,4.9708,4.9702,4.9703,4.9704,0,0,0,0,0,0,0,0,0,0,0,0,0,4.9742,4.9739,4.9763,4.974,4.9738,4.9756,4.9756,4.9756,4.9712,4.9711,4.9709,4.9707,4.9701,4.9703,4.9704,4.9744,0,0,4.9708,4.9708,0,0,0,0,0,0,0,0,4.9742,4.9743,4.9743,4.9742,4.9739,4.9733,4.9745,4.9752,4.9713,4.9722,4.9709,4.9707,4.9714,4.9714,4.9716,4.9743,4.9743,4.9708,4.9709,4.9709,4.9709,0,0,0,0,0,0,0,4.9741,4.9743,4.976,4.9744,4.9741,4.973,4.9729,4.9746,4.9727,4.9721,4.9718,4.9718,4.9712,4.9715,4.9716,4.9743,4.9708,4.9709,4.971,4.971,4.9802,4.9804,0,0,0,0,0,0,4.9744,4.9743,4.976,4.976,4.9736,4.9732,4.973,4.9737,4.9727,4.9724,4.9719,4.9716,4.9714,4.9714,4.9715,4.9761,4.9709,4.971,4.9711,4.9801,4.9803,4.9805,0,0,0,0,0,0,4.9744,4.9746,4.9761,4.9751,4.9752,4.9734,4.9741,4.9737,4.974,4.9725,4.9722,4.9725,4.9712,4.9713,4.9737,4.976,4.9711,4.9712,4.9799,4.9801,4.9804,4.9853,0,0,0,0,0,0,4.9743,4.9746,4.9761,4.9751,4.9752,4.9783,4.9743,4.9738,4.9742,4.9738,4.973,4.9727,4.9711,4.9735,4.9738,4.9761,4.9713,4.9797,4.98,4.9803,4.9849,4.9857,4.9863,0,0,0,0,0,4.9743,4.9776,4.9762,4.9765,4.9771,4.9784,4.9785,4.9765,4.9744,4.9759,4.975,4.9727,4.9757,4.9738,4.9741,4.9764,4.9795,4.9799,4.9803,4.9846,4.9855,4.9863,0,0,0,0,0,0,4.9789,4.9774,4.9759,4.979,4.9789,4.9777,4.9795,4.9776,4.9781,4.9776,4.9753,4.9751,4.9778,4.9774,4.9753,4.9802,4.9772,4.9777,4.9804,4.9813,4.982,4.982,4.9714,0,0,0,0,0,4.9803,4.9815,4.9801,4.983,4.983,4.9813,4.9818,4.9803,4.9801,4.98,4.9792,4.9791,4.98,4.9806,4.9814,4.9848,4.9846,4.9866,4.9873,4.9879,4.9883,4.9901,4.991,4.9817,4.9817,4.9817,0,0,4.9832,4.9825,4.9834,4.9839,4.9836,4.9849,4.9812,4.9828,4.9837,4.9802,4.9824,4.9818,4.9815,4.9844,4.9857,4.9841,4.9908,4.9884,4.9889,4.989,4.9906,4.9915,4.9922,4.982,4.9819,4.9819,0,0,4.9891,4.9887,4.991,4.9908,4.9904,4.9893,4.9898,4.9889,4.9884,4.9905,4.9879,4.989,4.9906,4.9905,4.9906,4.9965,4.9944,4.9968,5.0005,5.0023,5.003,5.0036,5.0057,5.0064,4.9972,4.9972,4.9972,0,4.9927,4.9946,4.9925,4.9942,4.9944,4.9913,4.9936,4.9935,4.9935,4.9937,4.992,4.9939,4.9935,4.9963,4.9977,4.998,4.9985,4.9968,5.0031,5.0037,5.0042,5.0062,5.0069,4.9975,4.9975,4.9974,4.9974,0,4.9991,5.0004,5.0023,5.0022,5.0027,5.0047,5.0029,5.0037,5.0021,5.0012,5.0033,5.0027,5.0033,5.0038,5.0024,5.0065,5.0055,5.0035,5.0004,5.0054,5.0072,5.0079,4.9979,4.9978,4.9977,4.9976,0,0,5.0079,5.0066,5.0074,5.0073,5.0066,5.0076,5.0095,5.01,5.0106,5.0107,5.0122,5.0136,5.0117,5.0119,5.0104,5.0119,5.0165,5.0097,5.0096,5.0109,5.021,5.0225,5.0234,5.0152,5.0153,5.0154,5.021,0,5.0135,5.0166,5.0147,5.0181,5.0193,5.0163,5.0179,5.0177,5.0168,5.0177,5.0167,5.0178,5.0152,5.0152,5.0167,5.0157,5.0185,5.0153,5.0166,5.0166,5.0167,5.0243,5.026,5.0312,5.0217,5.0218,5.0219,0,5.0205,5.0208,5.0243,5.0234,5.0238,5.0253,5.0256,5.0264,5.0261,5.0254,5.0256,5.0237,5.0254,5.0224,5.0248,5.0227,5.0231,5.0227,5.0228,5.0229,5.0195,5.0245,5.0328,5.0336,5.0229,5.0229,5.0228,0,5.0266,5.0279,5.0301,5.0301,5.0291,5.0302,5.0298,5.0293,5.0298,5.03,5.0303,5.0308,5.0311,5.0315,5.0298,5.0278,5.0324,5.0293,5.0318,5.0319,5.0329,5.0329,5.0414,5.0332,5.0332,5.0332,5.0332,0,5.0331,5.0353,5.0328,5.0342,5.0366,5.0344,5.0368,5.0362,5.0358,5.0369,5.0344,5.0356,5.0333,5.0343,5.0329,5.0351,5.0353,5.0347,5.0343,5.0349,5.035,5.0351,5.0347,5.0334,5.0334,5.0333,5.0333,0,5.0402,5.0386,5.0409,5.0397,5.0395,5.0413,5.0403,5.0415,5.0405,5.042,5.0422,5.0406,5.0416,5.0399,5.0407,5.0398,5.0428,5.0419,5.0429,5.0427,5.0453,5.0451,5.0542,5.0553,5.0465,5.0466,5.0466,0,5.0445,5.0461,5.0451,5.0457,5.0455,5.0465,5.0469,5.0448,5.0453,5.0451,5.0463,5.0471,5.0476,5.0493,5.0482,5.0488,5.0478,5.051,5.0479,5.0484,5.0478,5.0477,5.0479,5.0516,5.0517,5.0518,5.0519,0,5.0521,5.0512,5.0519,5.0523,5.0528,5.053,5.0531,5.0537,5.0515,5.0522,5.0532,5.0536,5.0544,5.0551,5.0555,5.0551,5.0531,5.0528,5.0535,5.0541,5.0546,5.0543,5.0446,5.0526,5.0526,5.0525,5.0525,5.0524,5.0579,5.0592,5.0587,5.0595,5.0593,5.0594,5.0605,5.0595,5.0603,5.0607,5.0595,5.0607,5.0603,5.0606,5.0604,5.0614,5.06,5.0609,5.0611,5.0613,5.0618,5.0545,5.0614,5.0614,5.0614,5.0613,5.0613,0,5.0654,5.0649,5.0657,5.0658,5.0665,5.0645,5.0644,5.0651,5.0662,5.066,5.0666,5.0677,5.0684,5.0673,5.0679,5.0689,5.068,5.0691,5.069,5.0689,5.063,5.0624,5.0698,5.0698,5.0698,5.0698,5.0698,5.0698,5.0694,5.0715,5.0706,5.0725,5.072,5.0732,5.0733,5.0734,5.0732,5.0745,5.0751,5.0744,5.0739,5.0744,5.075,5.0746,5.0749,5.0764,5.0757,5.0702,5.0694,5.0686,5.068,5.0765,5.0765,5.0816,5.0816,5.0817]}]]